[[{"header":{"parameterUnit":"m.s-1","parameterCategory":2,"la1":30.2991,"la2":30.254,"lo1":-89.0895,"lo2":-89.0444,"dy":0.0017,"dx":0.0017,"nx":28,"ny":28,"refTime":"2025-07-15T21:00:00:Z","depth":"0","parameterNumber":2,"parameterNumberName":"U-component_of_CURRENTS"},"data":[0,0,0,0,0,0,0,0,0,0,0,0,0,0,0,0,0,0,0,0,0,0,0,0,0,0,0,0,0,0,0,0,0,0,0,0,0,0,0,0,0,0,0,0,0,0,0,0,0,0,0,0,0,0,0,0,0,0,-0.1612,-0.1612,0,-0.16,-0.16,-0.16,-0.1574,-0.1574,-0.1574,-0.1573,-0.15,-0.1499,-0.1497,0,0,0,0,0,0,0,0,0,0,0,0,0,-0.1607,-0.1607,-0.1612,-0.1612,-0.1611,-0.16,-0.16,-0.16,-0.1575,-0.1574,-0.1573,-0.1573,-0.1501,-0.1499,-0.1497,0,0,0,0,0,0,0,0,0,0,0,0,0,-0.1603,-0.1607,-0.1612,-0.1598,-0.1597,-0.16,-0.16,-0.16,-0.1575,-0.1574,-0.1573,-0.1573,-0.1501,-0.1499,-0.1497,-0.1496,0,0,-0.149,-0.1489,0,0,0,0,0,0,0,0,-0.1603,-0.1603,-0.16,-0.1599,-0.1598,-0.1589,-0.1572,-0.1562,-0.1575,-0.1582,-0.1573,-0.1572,-0.1525,-0.1521,-0.152,-0.1493,-0.1489,-0.149,-0.1488,-0.1487,-0.1487,0,0,0,0,0,0,0,-0.1603,-0.1603,-0.1606,-0.16,-0.1599,-0.1591,-0.159,-0.157,-0.1556,-0.1581,-0.158,-0.158,-0.1524,-0.1522,-0.1518,-0.1488,-0.149,-0.1488,-0.1486,-0.1485,-0.1449,-0.145,0,0,0,0,0,0,-0.1607,-0.1603,-0.1607,-0.1606,-0.16,-0.1592,-0.159,-0.1592,-0.1557,-0.1552,-0.1581,-0.1579,-0.1527,-0.1521,-0.1515,-0.1507,-0.1487,-0.1485,-0.1484,-0.1449,-0.1449,-0.145,0,0,0,0,0,0,-0.1607,-0.1608,-0.1607,-0.1605,-0.1604,-0.1593,-0.1594,-0.1592,-0.1588,-0.1558,-0.1551,-0.1579,-0.1526,-0.1518,-0.1507,-0.1504,-0.1484,-0.1482,-0.1448,-0.1449,-0.145,-0.1493,0,0,0,0,0,0,-0.1607,-0.1608,-0.1611,-0.1605,-0.1605,-0.1611,-0.1595,-0.1592,-0.159,-0.1587,-0.1554,-0.1547,-0.1525,-0.1511,-0.1505,-0.15,-0.148,-0.1448,-0.1449,-0.1449,-0.1491,-0.1495,-0.1498,0,0,0,0,0,-0.1607,-0.1609,-0.1611,-0.1612,-0.1609,-0.1611,-0.161,-0.1599,-0.159,-0.1592,-0.1576,-0.1548,-0.1511,-0.151,-0.1503,-0.1497,-0.1448,-0.1448,-0.1449,-0.1489,-0.1494,-0.1498,0,0,0,0,0,0,-0.1608,-0.1607,-0.1609,-0.1611,-0.1614,-0.1607,-0.1604,-0.1602,-0.1592,-0.1586,-0.1558,-0.155,-0.1537,-0.1516,-0.1515,-0.149,-0.1472,-0.1472,-0.1505,-0.1509,-0.1513,-0.1528,-0.1478,0,0,0,0,0,-0.1613,-0.1608,-0.1615,-0.1614,-0.1617,-0.1613,-0.1612,-0.1609,-0.16,-0.1595,-0.1576,-0.1553,-0.1537,-0.1523,-0.1505,-0.1493,-0.149,-0.1484,-0.1488,-0.1491,-0.1499,-0.1497,-0.1502,-0.1453,-0.1453,-0.1453,0,0,-0.1607,-0.1609,-0.1603,-0.1613,-0.1611,-0.1624,-0.161,-0.161,-0.162,-0.1588,-0.1587,-0.1566,-0.1538,-0.1527,-0.1518,-0.1507,-0.1506,-0.1492,-0.1495,-0.1501,-0.1499,-0.1503,-0.1508,-0.1454,-0.1453,-0.1453,0,0,-0.1602,-0.1602,-0.1603,-0.1613,-0.1621,-0.1624,-0.1627,-0.1628,-0.1626,-0.1629,-0.1608,-0.1593,-0.1565,-0.1549,-0.1536,-0.155,-0.1528,-0.1535,-0.1562,-0.156,-0.1564,-0.1568,-0.1584,-0.1589,-0.1534,-0.1534,-0.1534,0,-0.1595,-0.1606,-0.1604,-0.162,-0.1628,-0.1627,-0.1642,-0.1646,-0.1644,-0.1648,-0.1632,-0.1605,-0.1577,-0.157,-0.1573,-0.1557,-0.156,-0.1547,-0.1566,-0.1569,-0.1572,-0.1588,-0.1592,-0.1536,-0.1536,-0.1536,-0.1536,0,-0.1601,-0.1615,-0.1616,-0.1636,-0.1648,-0.1655,-0.167,-0.1678,-0.1675,-0.1679,-0.1674,-0.1644,-0.1629,-0.1612,-0.1596,-0.1599,-0.1597,-0.1574,-0.1557,-0.158,-0.1595,-0.1599,-0.1539,-0.1539,-0.1538,-0.1537,0,0,-0.1565,-0.161,-0.161,-0.163,-0.1658,-0.1665,-0.169,-0.1711,-0.1728,-0.1718,-0.1734,-0.17,-0.1687,-0.1672,-0.1644,-0.1638,-0.1661,-0.1618,-0.1616,-0.1639,-0.1675,-0.1726,-0.1735,-0.164,-0.164,-0.1641,-0.1682,0,-0.1568,-0.16,-0.1625,-0.1655,-0.1672,-0.1695,-0.1721,-0.1742,-0.1751,-0.1769,-0.1746,-0.1743,-0.1709,-0.1697,-0.169,-0.167,-0.1671,-0.1653,-0.1645,-0.1645,-0.1691,-0.1741,-0.1744,-0.1786,-0.1686,-0.1687,-0.1687,0,-0.1561,-0.1589,-0.1619,-0.1671,-0.1681,-0.17,-0.1738,-0.1762,-0.1796,-0.1805,-0.1807,-0.1797,-0.1795,-0.1753,-0.1745,-0.1736,-0.1713,-0.1694,-0.1694,-0.173,-0.1704,-0.1743,-0.1796,-0.1779,-0.1693,-0.1693,-0.1692,0,-0.1523,-0.158,-0.1601,-0.1618,-0.1679,-0.1694,-0.1721,-0.1763,-0.179,-0.1823,-0.1849,-0.1845,-0.1847,-0.1819,-0.1796,-0.1769,-0.1793,-0.1746,-0.1773,-0.1776,-0.1772,-0.1775,-0.1812,-0.1739,-0.1739,-0.1738,-0.1738,0,-0.1506,-0.1524,-0.1584,-0.1593,-0.1626,-0.1673,-0.1704,-0.1739,-0.1792,-0.1842,-0.1856,-0.19,-0.1862,-0.1876,-0.1833,-0.1842,-0.1825,-0.1801,-0.1796,-0.179,-0.1794,-0.1772,-0.1756,-0.174,-0.174,-0.1739,-0.1739,0,-0.1454,-0.1493,-0.1523,-0.1587,-0.1604,-0.1621,-0.1688,-0.1717,-0.178,-0.1849,-0.1863,-0.1942,-0.1993,-0.1967,-0.1944,-0.1905,-0.1868,-0.1885,-0.1898,-0.1895,-0.1907,-0.1893,-0.1878,-0.181,-0.1929,-0.193,-0.1932,0,-0.1432,-0.1441,-0.15,-0.1517,-0.1542,-0.158,-0.161,-0.1685,-0.1733,-0.1887,-0.1924,-0.2015,-0.2113,-0.2132,-0.209,-0.2063,-0.195,-0.1998,-0.1943,-0.1938,-0.1918,-0.1843,-0.1778,-0.1953,-0.1955,-0.1956,-0.1957,0,-0.1393,-0.1407,-0.1432,-0.1466,-0.1494,-0.1539,-0.1596,-0.1642,-0.1762,-0.1872,-0.2051,-0.2157,-0.2246,-0.2273,-0.223,-0.2176,-0.1964,-0.2023,-0.2,-0.1945,-0.1881,-0.1803,-0.1905,-0.1967,-0.1966,-0.1965,-0.1965,-0.1964,-0.1358,-0.1361,-0.1388,-0.1413,-0.1449,-0.1498,-0.1517,-0.1639,-0.1759,-0.1944,-0.2099,-0.2264,-0.2329,-0.2329,-0.2282,-0.2168,-0.2097,-0.2067,-0.2054,-0.1979,-0.191,-0.2063,-0.213,-0.213,-0.213,-0.213,-0.213,0,-0.1326,-0.1325,-0.1339,-0.137,-0.1385,-0.1422,-0.1505,-0.1536,-0.1691,-0.1917,-0.2117,-0.2303,-0.2347,-0.2323,-0.2276,-0.2202,-0.2062,-0.211,-0.1987,-0.1915,-0.2049,-0.2049,-0.2124,-0.2124,-0.2124,-0.2124,-0.2124,-0.2124,-0.1307,-0.1298,-0.1297,-0.1294,-0.1314,-0.1309,-0.1341,-0.1439,-0.1561,-0.1825,-0.2,-0.2173,-0.2145,-0.2386,-0.2297,-0.2189,-0.2035,-0.2016,-0.1929,-0.2036,-0.2029,-0.2023,-0.2019,-0.2086,-0.2086,-0.1734,-0.1732,-0.173]},{"header":{"parameterUnit":"m.s-1","parameterCategory":2,"la1":30.2991,"la2":30.254,"lo1":-89.0895,"lo2":-89.0444,"dy":0.0017,"dx":0.0017,"nx":28,"ny":28,"refTime":"2025-07-15T21:00:00:Z","depth":"0","parameterNumber":3,"parameterNumberName":"V-component_of_CURRENTS"},"data":[0,0,0,0,0,0,0,0,0,0,0,0,0,0,0,0,0,0,0,0,0,0,0,0,0,0,0,0,0,0,0,0,0,0,0,0,0,0,0,0,0,0,0,0,0,0,0,0,0,0,0,0,0,0,0,0,0,0,-0.0458,-0.0458,0,-0.0412,-0.0411,-0.0411,-0.0393,-0.0393,-0.0393,-0.0393,-0.0391,-0.0391,-0.0391,0,0,0,0,0,0,0,0,0,0,0,0,0,-0.0555,-0.0554,-0.0459,-0.0458,-0.0457,-0.0412,-0.0411,-0.0411,-0.0393,-0.0393,-0.0393,-0.0393,-0.0391,-0.0391,-0.0391,0,0,0,0,0,0,0,0,0,0,0,0,0,-0.0513,-0.0553,-0.0459,-0.0442,-0.044,-0.0412,-0.0411,-0.0411,-0.0393,-0.0393,-0.0393,-0.0393,-0.0391,-0.0391,-0.0391,-0.039,0,0,-0.0391,-0.0391,0,0,0,0,0,0,0,0,-0.0515,-0.0509,-0.0445,-0.0443,-0.0441,-0.0407,-0.0445,-0.0406,-0.0393,-0.0412,-0.0393,-0.0393,-0.04,-0.0399,-0.0391,-0.039,-0.039,-0.0391,-0.0391,-0.0391,-0.0391,0,0,0,0,0,0,0,-0.0518,-0.0511,-0.0441,-0.0444,-0.0442,-0.0445,-0.0438,-0.0437,-0.0408,-0.041,-0.0409,-0.0402,-0.0399,-0.0391,-0.0391,-0.039,-0.0391,-0.0391,-0.0391,-0.039,-0.0388,-0.0388,0,0,0,0,0,0,-0.052,-0.0514,-0.0443,-0.044,-0.0477,-0.0443,-0.0436,-0.0419,-0.0407,-0.0405,-0.0402,-0.0401,-0.0392,-0.0391,-0.0391,-0.039,-0.0391,-0.039,-0.039,-0.0388,-0.0388,-0.0388,0,0,0,0,0,0,-0.0522,-0.0513,-0.0445,-0.0476,-0.0467,-0.0441,-0.0422,-0.0418,-0.041,-0.04,-0.0398,-0.0397,-0.0392,-0.0391,-0.0388,-0.039,-0.039,-0.039,-0.0388,-0.0388,-0.0388,-0.0388,0,0,0,0,0,0,-0.0525,-0.0514,-0.0506,-0.0475,-0.0465,-0.0435,-0.0422,-0.0417,-0.0404,-0.0403,-0.0396,-0.0395,-0.0392,-0.0388,-0.0388,-0.039,-0.039,-0.0388,-0.0388,-0.0388,-0.0388,-0.0388,-0.0388,0,0,0,0,0,-0.0528,-0.052,-0.0506,-0.0498,-0.0453,-0.0435,-0.0431,-0.0413,-0.0404,-0.0405,-0.0394,-0.0395,-0.0388,-0.0388,-0.0388,-0.039,-0.0388,-0.0388,-0.0388,-0.0388,-0.0388,-0.0388,0,0,0,0,0,0,-0.0558,-0.0517,-0.05,-0.0479,-0.046,-0.0432,-0.043,-0.0414,-0.0404,-0.0404,-0.0394,-0.0393,-0.039,-0.039,-0.039,-0.0389,-0.0389,-0.0389,-0.0389,-0.0389,-0.0389,-0.0397,-0.039,0,0,0,0,0,-0.056,-0.0543,-0.0507,-0.0492,-0.0483,-0.0456,-0.0446,-0.0433,-0.0417,-0.0412,-0.0402,-0.0396,-0.0389,-0.039,-0.0385,-0.0386,-0.0371,-0.0388,-0.0388,-0.0388,-0.0394,-0.0374,-0.0372,-0.0388,-0.0388,-0.0388,0,0,-0.0566,-0.0542,-0.0531,-0.0498,-0.0482,-0.0473,-0.0451,-0.0439,-0.0432,-0.0415,-0.0407,-0.0395,-0.0388,-0.0385,-0.0385,-0.0387,-0.0371,-0.0388,-0.0388,-0.0394,-0.0374,-0.0372,-0.0371,-0.0388,-0.0388,-0.0388,0,0,-0.0582,-0.0551,-0.0548,-0.0532,-0.0508,-0.049,-0.0487,-0.0457,-0.0446,-0.0433,-0.0417,-0.0405,-0.0398,-0.0389,-0.0385,-0.0384,-0.0369,-0.0385,-0.0394,-0.0374,-0.0372,-0.0371,-0.0329,-0.0324,-0.0388,-0.0388,-0.0388,0,-0.0591,-0.0578,-0.0547,-0.0543,-0.0533,-0.0499,-0.0499,-0.0481,-0.0453,-0.0443,-0.0436,-0.0406,-0.04,-0.039,-0.0388,-0.0385,-0.0364,-0.0393,-0.0374,-0.0372,-0.0371,-0.0328,-0.0323,-0.0388,-0.0388,-0.0388,-0.0388,0,-0.0609,-0.0597,-0.0597,-0.0576,-0.0562,-0.0558,-0.0526,-0.0512,-0.049,-0.0467,-0.0447,-0.0426,-0.041,-0.0404,-0.0397,-0.0384,-0.0367,-0.0372,-0.0373,-0.0369,-0.0324,-0.0319,-0.0388,-0.0388,-0.0388,-0.0388,0,0,-0.063,-0.0613,-0.0611,-0.0613,-0.0579,-0.0573,-0.0556,-0.0532,-0.0525,-0.049,-0.0475,-0.0451,-0.0429,-0.0423,-0.0405,-0.0389,-0.0351,-0.0379,-0.0378,-0.0336,-0.0289,-0.0225,-0.0212,-0.0353,-0.0352,-0.0352,-0.0254,0,-0.0654,-0.0666,-0.0641,-0.0647,-0.0652,-0.0611,-0.0601,-0.0572,-0.0543,-0.0521,-0.0482,-0.0465,-0.0439,-0.0432,-0.0407,-0.0367,-0.034,-0.0377,-0.0301,-0.0298,-0.0241,-0.0205,-0.0122,-0.0024,-0.0248,-0.0247,-0.0246,0,-0.0679,-0.0686,-0.0702,-0.0691,-0.0687,-0.0682,-0.0658,-0.0641,-0.0594,-0.0571,-0.0532,-0.0498,-0.0453,-0.0443,-0.0357,-0.038,-0.0337,-0.0304,-0.03,-0.024,-0.0224,-0.0068,-0.0005,0.0154,-0.0237,-0.0238,-0.0238,0,-0.0726,-0.0723,-0.0743,-0.0739,-0.0721,-0.0717,-0.0701,-0.066,-0.0653,-0.0602,-0.059,-0.052,-0.0488,-0.0425,-0.0331,-0.035,-0.0233,-0.0252,-0.0149,-0.0143,-0.0058,-0.0046,0.0167,-0.0202,-0.0202,-0.0203,-0.0203,0,-0.0761,-0.0773,-0.077,-0.0783,-0.0802,-0.0766,-0.0772,-0.0742,-0.0709,-0.0703,-0.0623,-0.0597,-0.0487,-0.04,-0.0328,-0.0195,-0.0221,-0.0136,-0.0113,-0.0053,-0.0042,0.0109,0.019,-0.0199,-0.02,-0.02,-0.0201,0,-0.0803,-0.0801,-0.0825,-0.0825,-0.0826,-0.0838,-0.0826,-0.0832,-0.0785,-0.0774,-0.076,-0.0648,-0.0513,-0.0382,-0.0258,-0.0183,0.0045,-0.0029,0.0052,0.0083,0.0312,0.0388,0.0643,0.0697,0.0097,0.0099,0.0101,0,-0.0828,-0.0848,-0.0867,-0.0886,-0.0887,-0.09,-0.0913,-0.0879,-0.0887,-0.0807,-0.0811,-0.0663,-0.0552,-0.03,-0.0112,0.0074,0.0165,0.0223,0.0193,0.0359,0.0461,0.0521,0.0549,0.0316,0.032,0.0323,0.0325,0,-0.0874,-0.0878,-0.0894,-0.0944,-0.0969,-0.0997,-0.1012,-0.1035,-0.0991,-0.0972,-0.0903,-0.0796,-0.0479,-0.0187,0.0096,0.0189,0.0388,0.0285,0.0437,0.0645,0.0746,0.0796,0.0227,0.035,0.0347,0.0346,0.0344,0.0343,-0.0903,-0.0923,-0.0952,-0.0995,-0.1035,-0.1092,-0.1132,-0.1145,-0.1162,-0.1114,-0.0972,-0.0766,-0.0256,0.0178,0.0286,0.0644,0.0596,0.0737,0.0816,0.0859,0.0926,0.0425,0.0578,0.0577,0.0576,0.0575,0.0575,0,-0.0946,-0.0962,-0.1005,-0.1066,-0.1133,-0.1133,-0.1199,-0.1245,-0.1288,-0.1146,-0.1038,-0.0443,0.0046,0.0465,0.1022,0.119,0.117,0.1268,0.1376,0.137,0.0921,0.0943,0.1208,0.1208,0.1207,0.1207,0.1207,0.1207,-0.097,-0.1011,-0.1032,-0.1145,-0.1191,-0.1291,-0.1338,-0.1394,-0.1334,-0.1124,-0.0792,-0.0496,0.0312,0.1311,0.1778,0.175,0.1859,0.1889,0.1901,0.1611,0.1567,0.1524,0.1564,0.1955,0.1956,0.2324,0.2329,0.2332]}],[{"header":{"parameterUnit":"m.s-1","parameterCategory":2,"la1":30.2991,"la2":30.254,"lo1":-89.0895,"lo2":-89.0444,"dy":0.0017,"dx":0.0017,"nx":28,"ny":28,"refTime":"2025-07-15T21:00:00:Z","depth":"2","parameterNumber":2,"parameterNumberName":"U-component_of_CURRENTS"},"data":[0,0,0,0,0,0,0,0,0,0,0,0,0,0,0,0,0,0,0,0,0,0,0,0,0,0,0,0,0,0,0,0,0,0,0,0,0,0,0,0,0,0,0,0,0,0,0,0,0,0,0,0,0,0,0,0,0,0,-0.1589,-0.159,0,-0.164,-0.164,-0.1641,-0.1652,-0.1651,-0.1651,-0.1651,-0.1687,-0.1689,-0.169,0,0,0,0,0,0,0,0,0,0,0,0,0,-0.1532,-0.1532,-0.1589,-0.159,-0.159,-0.1639,-0.164,-0.1641,-0.1652,-0.1651,-0.1651,-0.165,-0.1687,-0.1688,-0.169,0,0,0,0,0,0,0,0,0,0,0,0,0,-0.1566,-0.1533,-0.1589,-0.1602,-0.1604,-0.1639,-0.164,-0.1641,-0.1652,-0.1651,-0.1651,-0.165,-0.1686,-0.1688,-0.169,-0.1712,0,0,-0.1696,-0.1697,0,0,0,0,0,0,0,0,-0.1564,-0.1568,-0.1599,-0.1601,-0.1603,-0.1639,-0.1633,-0.1664,-0.1652,-0.1633,-0.1651,-0.165,-0.1671,-0.1674,-0.1684,-0.1713,-0.1715,-0.1696,-0.1697,-0.1698,-0.1699,0,0,0,0,0,0,0,-0.1562,-0.1566,-0.1608,-0.16,-0.1603,-0.1616,-0.162,-0.1639,-0.1653,-0.1634,-0.1636,-0.1642,-0.1672,-0.1682,-0.1685,-0.1715,-0.1696,-0.1698,-0.1699,-0.17,-0.1744,-0.1744,0,0,0,0,0,0,-0.1556,-0.1564,-0.1607,-0.161,-0.1583,-0.1617,-0.1622,-0.1628,-0.1653,-0.1657,-0.1643,-0.1643,-0.1679,-0.1683,-0.1686,-0.1717,-0.1698,-0.17,-0.1701,-0.1744,-0.1744,-0.1744,0,0,0,0,0,0,-0.1554,-0.1559,-0.1605,-0.1588,-0.1595,-0.1618,-0.1625,-0.1629,-0.1641,-0.166,-0.1663,-0.1651,-0.1679,-0.1683,-0.1697,-0.1718,-0.1701,-0.1703,-0.1744,-0.1744,-0.1744,-0.1775,0,0,0,0,0,0,-0.1552,-0.1558,-0.1562,-0.1588,-0.1596,-0.1629,-0.1626,-0.163,-0.1646,-0.1646,-0.1668,-0.1671,-0.1679,-0.1694,-0.1699,-0.172,-0.1704,-0.1744,-0.1744,-0.1744,-0.1774,-0.1776,-0.1778,0,0,0,0,0,-0.155,-0.1551,-0.1562,-0.1567,-0.16,-0.163,-0.1635,-0.1649,-0.1647,-0.1657,-0.1662,-0.167,-0.1698,-0.1696,-0.1701,-0.1724,-0.1744,-0.1744,-0.1744,-0.1773,-0.1776,-0.1778,0,0,0,0,0,0,-0.153,-0.1553,-0.1565,-0.1574,-0.1604,-0.1632,-0.1638,-0.1652,-0.1665,-0.1663,-0.1674,-0.1677,-0.1697,-0.17,-0.1698,-0.1733,-0.1721,-0.1723,-0.1742,-0.1744,-0.1746,-0.1771,-0.1706,0,0,0,0,0,-0.1529,-0.1529,-0.1566,-0.1573,-0.1587,-0.1615,-0.1628,-0.1645,-0.166,-0.1666,-0.1683,-0.1692,-0.1703,-0.1714,-0.1725,-0.1749,-0.1759,-0.1763,-0.1766,-0.1767,-0.1789,-0.1815,-0.1822,-0.1744,-0.1744,-0.1744,0,0,-0.1521,-0.1534,-0.1535,-0.1568,-0.1588,-0.1623,-0.1621,-0.1645,-0.1676,-0.1668,-0.1704,-0.1703,-0.1708,-0.1731,-0.1741,-0.1738,-0.179,-0.1767,-0.1769,-0.179,-0.1816,-0.1823,-0.183,-0.1744,-0.1744,-0.1744,0,0,-0.1519,-0.1521,-0.1534,-0.1562,-0.1599,-0.162,-0.1629,-0.1668,-0.1684,-0.1716,-0.1714,-0.1728,-0.1746,-0.1763,-0.1769,-0.179,-0.1797,-0.1784,-0.1823,-0.1848,-0.1855,-0.1862,-0.187,-0.1877,-0.1789,-0.1789,-0.1789,0,-0.1514,-0.1541,-0.1544,-0.1577,-0.1603,-0.1621,-0.1661,-0.1683,-0.1724,-0.1748,-0.1728,-0.1768,-0.1768,-0.1808,-0.1808,-0.18,-0.1804,-0.1816,-0.1853,-0.186,-0.1866,-0.1873,-0.1881,-0.179,-0.179,-0.179,-0.179,0,-0.1543,-0.1566,-0.1573,-0.162,-0.1645,-0.1677,-0.1716,-0.1747,-0.1761,-0.1789,-0.1827,-0.1824,-0.1849,-0.1846,-0.1833,-0.1879,-0.1863,-0.185,-0.1852,-0.1876,-0.1881,-0.1889,-0.1793,-0.1792,-0.1792,-0.1791,0,0,-0.154,-0.1586,-0.1594,-0.1624,-0.1675,-0.1701,-0.175,-0.181,-0.1858,-0.1873,-0.1931,-0.1931,-0.1928,-0.1934,-0.1922,-0.1942,-0.1975,-0.1915,-0.1915,-0.1933,-0.2018,-0.2037,-0.2046,-0.1966,-0.1968,-0.1969,-0.1998,0,-0.1573,-0.163,-0.165,-0.171,-0.1743,-0.1777,-0.1827,-0.1879,-0.1914,-0.1973,-0.1975,-0.2009,-0.196,-0.197,-0.1982,-0.1983,-0.1998,-0.1968,-0.1984,-0.1985,-0.2008,-0.2058,-0.1795,-0.1802,-0.2006,-0.2007,-0.2008,0,-0.1614,-0.1643,-0.1701,-0.1763,-0.1784,-0.1818,-0.1904,-0.195,-0.2028,-0.2057,-0.2088,-0.2094,-0.2121,-0.2073,-0.2089,-0.2068,-0.2048,-0.2042,-0.2043,-0.2063,-0.202,-0.1813,-0.1808,-0.202,-0.2019,-0.2018,-0.2017,0,-0.1615,-0.1685,-0.1725,-0.1748,-0.1819,-0.1852,-0.1889,-0.1971,-0.2024,-0.2104,-0.2154,-0.2179,-0.2196,-0.2183,-0.2152,-0.2124,-0.2175,-0.2133,-0.2133,-0.2132,-0.1917,-0.1897,-0.2157,-0.2157,-0.2157,-0.2157,-0.2156,0,-0.1643,-0.1678,-0.1724,-0.1745,-0.1806,-0.1849,-0.1925,-0.198,-0.2068,-0.2145,-0.2178,-0.2247,-0.2226,-0.2248,-0.22,-0.2199,-0.2207,-0.2166,-0.2157,-0.1919,-0.1899,-0.2094,-0.2087,-0.2158,-0.2157,-0.2157,-0.2157,0,-0.1632,-0.167,-0.1711,-0.1775,-0.18,-0.1831,-0.1922,-0.1982,-0.2069,-0.2173,-0.2199,-0.2298,-0.2341,-0.2322,-0.232,-0.2272,-0.2261,-0.2252,-0.1975,-0.1937,-0.2185,-0.2178,-0.2266,-0.2267,-0.2268,-0.2269,-0.227,0,-0.1632,-0.1649,-0.1708,-0.173,-0.1751,-0.181,-0.1861,-0.1959,-0.2026,-0.2208,-0.2256,-0.2356,-0.2438,-0.2455,-0.2334,-0.2274,-0.2318,-0.2043,-0.1964,-0.2221,-0.2203,-0.2195,-0.2187,-0.1661,-0.1657,-0.1654,-0.1651,0,-0.1616,-0.1628,-0.1651,-0.1689,-0.173,-0.18,-0.1873,-0.1938,-0.2074,-0.2189,-0.2355,-0.2449,-0.2456,-0.2301,-0.2227,-0.2145,-0.2034,-0.198,-0.2305,-0.171,-0.1664,-0.1643,-0.1652,-0.162,-0.1623,-0.1625,-0.1627,-0.1628,-0.1591,-0.1587,-0.1607,-0.1636,-0.169,-0.1767,-0.1792,-0.1911,-0.2035,-0.211,-0.229,-0.2301,-0.216,-0.1946,-0.1869,-0.1794,-0.1931,-0.1791,-0.1795,-0.1804,-0.1764,-0.1727,-0.1685,-0.1688,-0.1691,-0.1694,-0.1696,0,-0.1554,-0.1544,-0.1559,-0.1594,-0.1621,-0.1676,-0.1778,-0.178,-0.1889,-0.193,-0.2014,-0.1726,-0.1643,-0.1585,-0.1421,-0.1417,-0.1325,-0.137,-0.1203,-0.1234,-0.1261,-0.1189,-0.0959,-0.0958,-0.0957,-0.0956,0,0,-0.1533,-0.1513,-0.1502,-0.1506,-0.153,-0.154,-0.1572,-0.1596,-0.1599,-0.152,-0.1448,-0.1425,-0.1487,-0.1143,-0.1081,-0.1042,-0.1128,-0.0985,-0.1558,-0.1388,-0.1414,-0.1473,-0.1394,0,0,0,0,0]},{"header":{"parameterUnit":"m.s-1","parameterCategory":2,"la1":30.2991,"la2":30.254,"lo1":-89.0895,"lo2":-89.0444,"dy":0.0017,"dx":0.0017,"nx":28,"ny":28,"refTime":"2025-07-15T21:00:00:Z","depth":"2","parameterNumber":3,"parameterNumberName":"V-component_of_CURRENTS"},"data":[0,0,0,0,0,0,0,0,0,0,0,0,0,0,0,0,0,0,0,0,0,0,0,0,0,0,0,0,0,0,0,0,0,0,0,0,0,0,0,0,0,0,0,0,0,0,0,0,0,0,0,0,0,0,0,0,0,0,0.0203,0.0204,0,0.0243,0.0243,0.0244,0.0263,0.0263,0.0263,0.0263,0.0304,0.0306,0.0307,0,0,0,0,0,0,0,0,0,0,0,0,0,0.0197,0.0197,0.0203,0.0204,0.0204,0.0243,0.0243,0.0244,0.0263,0.0263,0.0263,0.0263,0.0304,0.0305,0.0307,0,0,0,0,0,0,0,0,0,0,0,0,0,0.0215,0.0196,0.0203,0.0217,0.0219,0.0242,0.0243,0.0244,0.0263,0.0263,0.0263,0.0263,0.0303,0.0305,0.0307,0.0322,0,0,0.0313,0.0313,0,0,0,0,0,0,0,0,0.0214,0.0216,0.0215,0.0217,0.0218,0.0247,0.0256,0.027,0.0263,0.0248,0.0263,0.0263,0.0285,0.0288,0.0298,0.0324,0.0326,0.0313,0.0314,0.0315,0.0315,0,0,0,0,0,0,0,0.0213,0.0214,0.022,0.0215,0.0217,0.0239,0.0241,0.0259,0.0268,0.0249,0.025,0.0253,0.0286,0.0296,0.0299,0.0326,0.0313,0.0314,0.0315,0.0316,0.0334,0.0333,0,0,0,0,0,0,0.0203,0.0213,0.0219,0.0221,0.0214,0.0239,0.0242,0.0239,0.0268,0.0271,0.0253,0.0253,0.0293,0.0296,0.03,0.0289,0.0315,0.0316,0.0317,0.0334,0.0333,0.0333,0,0,0,0,0,0,0.0202,0.0203,0.0217,0.0217,0.0221,0.0239,0.0236,0.024,0.0243,0.027,0.0274,0.0251,0.0293,0.0298,0.0304,0.0292,0.0317,0.0319,0.0335,0.0334,0.0333,0.0287,0,0,0,0,0,0,0.0202,0.0202,0.0191,0.0216,0.022,0.022,0.0236,0.024,0.0244,0.0245,0.027,0.0274,0.0293,0.0301,0.0306,0.0295,0.032,0.0336,0.0334,0.0333,0.029,0.0285,0.0281,0,0,0,0,0,0.0201,0.0188,0.0191,0.0191,0.0206,0.0219,0.0223,0.0237,0.0244,0.0241,0.0256,0.0273,0.0297,0.0302,0.0308,0.0298,0.0336,0.0335,0.0333,0.0292,0.0286,0.0281,0,0,0,0,0,0,0.0174,0.0189,0.0193,0.0182,0.0194,0.0221,0.0218,0.0232,0.0243,0.0242,0.0269,0.0274,0.0277,0.0292,0.0297,0.0298,0.0318,0.0318,0.0284,0.0279,0.0275,0.027,0.0322,0,0,0,0,0,0.0163,0.0157,0.0177,0.0165,0.0171,0.0194,0.0199,0.021,0.0226,0.0231,0.0246,0.0262,0.0278,0.028,0.0298,0.0298,0.0319,0.0293,0.0289,0.0285,0.0284,0.0302,0.0299,0.0328,0.0328,0.0328,0,0,0.015,0.0155,0.0152,0.0159,0.017,0.0171,0.0196,0.0201,0.02,0.0234,0.0231,0.0251,0.0276,0.0277,0.0279,0.0285,0.0287,0.0283,0.028,0.0281,0.03,0.0298,0.0295,0.0327,0.0327,0.0327,0,0,0.0118,0.0124,0.0109,0.012,0.0131,0.0147,0.0145,0.0167,0.0175,0.0179,0.0203,0.0214,0.0231,0.0247,0.0259,0.024,0.0268,0.024,0.021,0.0227,0.0225,0.0223,0.0246,0.0246,0.0232,0.0232,0.0232,0,0.0099,0.008,0.0106,0.0097,0.0098,0.0132,0.0118,0.0137,0.0156,0.016,0.0168,0.0198,0.0219,0.0228,0.022,0.0231,0.0245,0.0228,0.0221,0.022,0.022,0.0243,0.0244,0.023,0.023,0.023,0.0231,0,0.0058,0.0046,0.0039,0.0038,0.0046,0.0039,0.007,0.0077,0.0091,0.0108,0.0119,0.0149,0.0163,0.0172,0.0191,0.0193,0.0207,0.0219,0.0235,0.0214,0.024,0.0242,0.0227,0.0227,0.0228,0.0229,0,0,0.0009,0.0008,0.0002,-0.0009,0.0012,0.0011,0.002,0.0031,0.003,0.0056,0.0052,0.0086,0.0103,0.0117,0.0143,0.0159,0.0168,0.0179,0.0181,0.0202,0.0207,0.0273,0.0282,0.0176,0.0176,0.0176,0.0227,0,-0.0037,-0.008,-0.0059,-0.009,-0.0104,-0.0062,-0.0062,-0.004,-0.0016,-0.0007,0.0037,0.0043,0.0082,0.008,0.0105,0.0159,0.0172,0.0154,0.0224,0.0226,0.0288,0.0286,0.0194,0.0237,0.023,0.023,0.0231,0,-0.0087,-0.011,-0.0157,-0.0161,-0.0163,-0.0173,-0.0165,-0.0157,-0.0114,-0.0096,-0.0067,-0.0029,0.0009,0.0035,0.0117,0.0102,0.0144,0.0186,0.0189,0.0269,0.0297,0.0257,0.0242,0.0235,0.0235,0.0234,0.0234,0,-0.0147,-0.0174,-0.0223,-0.0223,-0.022,-0.0232,-0.023,-0.0195,-0.0194,-0.0157,-0.0157,-0.0091,-0.007,0.0001,0.0105,0.0101,0.02,0.0204,0.0303,0.0308,0.0255,0.0256,0.0244,0.0244,0.0244,0.0244,0.0243,0,-0.0199,-0.0232,-0.0261,-0.0282,-0.0333,-0.0302,-0.0337,-0.0312,-0.0291,-0.0302,-0.0219,-0.0207,-0.008,0.0,0.0088,0.022,0.0187,0.0304,0.0328,0.0238,0.0237,0.0255,0.0255,0.0246,0.0245,0.0245,0.0244,0,-0.0239,-0.0263,-0.0314,-0.0345,-0.0361,-0.0394,-0.0413,-0.0435,-0.0399,-0.041,-0.0407,-0.0295,-0.017,-0.003,0.0104,0.0199,0.0314,0.0358,0.0258,0.027,0.0411,0.0408,0.0471,0.0474,0.0477,0.0479,0.048,0,-0.0259,-0.0295,-0.0367,-0.0413,-0.0431,-0.0478,-0.0515,-0.0497,-0.0518,-0.0464,-0.048,-0.0352,-0.024,0.0017,0.0178,0.0359,0.0369,0.0394,0.038,0.0419,0.0435,0.0428,0.0423,0.028,0.028,0.028,0.028,0,-0.0286,-0.0322,-0.0364,-0.047,-0.0534,-0.0603,-0.0652,-0.0682,-0.0661,-0.0654,-0.0604,-0.0497,-0.0228,-0.0028,0.0245,0.0338,0.0369,0.0403,0.0448,0.0258,0.0249,0.0262,0.026,0.0279,0.0279,0.028,0.028,0.028,-0.0303,-0.0345,-0.0424,-0.0516,-0.0613,-0.0725,-0.0787,-0.0825,-0.0858,-0.0844,-0.0707,-0.0551,-0.0339,0.0033,0.0228,0.0408,0.0411,0.0432,0.0426,0.0423,0.0412,0.041,0.0469,0.047,0.0471,0.0471,0.0472,0,-0.0317,-0.0379,-0.0467,-0.0602,-0.0732,-0.0772,-0.088,-0.0922,-0.0979,-0.0916,-0.0836,-0.0585,-0.0322,-0.0055,0.0212,0.04,0.0361,0.0442,0.0326,0.0324,0.0324,0.0305,0.0335,0.0335,0.0336,0.0337,0,0,-0.0331,-0.0403,-0.0452,-0.0669,-0.079,-0.0966,-0.1037,-0.1077,-0.1051,-0.0979,-0.0872,-0.0717,-0.0364,-0.0217,0.0008,0.0186,0.0211,0.0205,0.0283,0.0112,0.011,0.0275,0.0241,0,0,0,0,0]}],[{"header":{"parameterUnit":"m.s-1","parameterCategory":2,"la1":30.2991,"la2":30.254,"lo1":-89.0895,"lo2":-89.0444,"dy":0.0017,"dx":0.0017,"nx":28,"ny":28,"refTime":"2025-07-15T21:00:00:Z","depth":"4","parameterNumber":2,"parameterNumberName":"U-component_of_CURRENTS"},"data":[0,0,0,0,0,0,0,0,0,0,0,0,0,0,0,0,0,0,0,0,0,0,0,0,0,0,0,0,0,0,0,0,0,0,0,0,0,0,0,0,0,0,0,0,0,0,0,0,0,0,0,0,0,0,0,0,0,0,-0.1002,-0.1002,0,-0.105,-0.1051,-0.1051,-0.1111,-0.1112,-0.1113,-0.1114,-0.1226,-0.1228,-0.123,0,0,0,0,0,0,0,0,0,0,0,0,0,-0.0917,-0.0919,-0.1002,-0.1002,-0.1003,-0.105,-0.1051,-0.1051,-0.1111,-0.1112,-0.1113,-0.1114,-0.1225,-0.1228,-0.123,0,0,0,0,0,0,0,0,0,0,0,0,0,-0.0958,-0.0919,-0.1002,-0.1039,-0.1043,-0.105,-0.1051,-0.1052,-0.1111,-0.1112,-0.1114,-0.1115,-0.1224,-0.1227,-0.1231,-0.122,0,0,-0.124,-0.1241,0,0,0,0,0,0,0,0,-0.0956,-0.0961,-0.1033,-0.1036,-0.1041,-0.1077,-0.1062,-0.1111,-0.111,-0.1084,-0.1114,-0.1116,-0.1181,-0.1188,-0.1192,-0.1225,-0.123,-0.124,-0.1242,-0.1243,-0.1244,0,0,0,0,0,0,0,-0.0953,-0.0959,-0.102,-0.1033,-0.1038,-0.1038,-0.1046,-0.1071,-0.1124,-0.1087,-0.1091,-0.1097,-0.1184,-0.1189,-0.1195,-0.1231,-0.124,-0.1243,-0.1245,-0.1246,-0.1419,-0.1421,0,0,0,0,0,0,-0.0949,-0.0957,-0.1019,-0.1022,-0.1002,-0.1039,-0.1048,-0.1063,-0.1123,-0.1133,-0.1096,-0.11,-0.1183,-0.1192,-0.12,-0.1335,-0.1243,-0.1246,-0.1248,-0.1416,-0.1419,-0.1422,0,0,0,0,0,0,-0.0947,-0.0955,-0.1017,-0.099,-0.0998,-0.1039,-0.1056,-0.1063,-0.1093,-0.1129,-0.1141,-0.1121,-0.1184,-0.1195,-0.1249,-0.1335,-0.1248,-0.125,-0.1413,-0.1417,-0.1421,-0.1514,0,0,0,0,0,0,-0.0945,-0.0954,-0.0971,-0.099,-0.1,-0.1031,-0.1055,-0.1063,-0.1093,-0.11,-0.1154,-0.1165,-0.1186,-0.1245,-0.1252,-0.1337,-0.1253,-0.1409,-0.1415,-0.1419,-0.1507,-0.1521,-0.1532,0,0,0,0,0,-0.0942,-0.0956,-0.0971,-0.0979,-0.102,-0.1031,-0.1036,-0.1069,-0.1093,-0.1102,-0.1151,-0.1165,-0.1284,-0.1248,-0.1257,-0.1345,-0.1407,-0.1413,-0.1419,-0.1502,-0.1518,-0.1532,0,0,0,0,0,0,-0.0925,-0.0964,-0.0981,-0.1007,-0.1022,-0.1042,-0.1061,-0.1077,-0.1119,-0.1142,-0.1176,-0.1189,-0.1274,-0.1285,-0.1244,-0.1411,-0.1358,-0.1366,-0.1418,-0.1433,-0.1445,-0.146,-0.1255,0,0,0,0,0,-0.0929,-0.096,-0.0979,-0.1004,-0.1014,-0.104,-0.1054,-0.1074,-0.1108,-0.113,-0.1163,-0.1225,-0.1301,-0.1344,-0.1384,-0.1459,-0.1457,-0.1529,-0.1542,-0.1552,-0.1571,-0.1711,-0.1739,-0.1442,-0.1442,-0.1442,0,0,-0.0934,-0.0957,-0.0978,-0.1004,-0.1026,-0.1062,-0.1053,-0.1081,-0.1125,-0.1135,-0.1206,-0.1252,-0.1324,-0.1419,-0.1462,-0.1446,-0.1606,-0.156,-0.1568,-0.1582,-0.1721,-0.175,-0.1776,-0.1447,-0.1446,-0.1445,0,0,-0.0952,-0.0977,-0.1008,-0.1028,-0.1059,-0.1082,-0.1094,-0.1118,-0.1144,-0.122,-0.125,-0.1335,-0.1434,-0.1498,-0.1554,-0.1653,-0.1655,-0.1687,-0.1782,-0.1918,-0.1944,-0.1967,-0.1872,-0.1887,-0.171,-0.1711,-0.1711,0,-0.0962,-0.0996,-0.1014,-0.1048,-0.1047,-0.1099,-0.1107,-0.1169,-0.121,-0.123,-0.1265,-0.1447,-0.1487,-0.1635,-0.1689,-0.1686,-0.1699,-0.1719,-0.1936,-0.196,-0.1983,-0.1881,-0.1896,-0.1716,-0.1715,-0.1715,-0.1714,0,-0.0989,-0.1033,-0.1051,-0.1118,-0.1113,-0.1138,-0.1187,-0.123,-0.1289,-0.1348,-0.148,-0.1567,-0.1693,-0.1729,-0.1759,-0.194,-0.1864,-0.1922,-0.1899,-0.2019,-0.1901,-0.1914,-0.1723,-0.1721,-0.172,-0.1718,0,0,-0.0978,-0.1056,-0.1071,-0.1102,-0.1135,-0.115,-0.1213,-0.1268,-0.1371,-0.1472,-0.1588,-0.1751,-0.1827,-0.1894,-0.1948,-0.2072,-0.2192,-0.209,-0.2094,-0.1988,-0.2356,-0.205,-0.2033,-0.2335,-0.2341,-0.2346,-0.2161,0,-0.0996,-0.1059,-0.1066,-0.1138,-0.1159,-0.1186,-0.1258,-0.1325,-0.1422,-0.1568,-0.1699,-0.1884,-0.1893,-0.202,-0.2137,-0.2209,-0.2257,-0.2226,-0.2261,-0.2257,-0.1974,-0.2053,-0.2366,-0.2171,-0.2174,-0.2177,-0.2178,0,-0.1006,-0.1044,-0.1069,-0.115,-0.1161,-0.1229,-0.1308,-0.1397,-0.1588,-0.1667,-0.185,-0.1993,-0.2181,-0.2221,-0.2373,-0.2373,-0.2372,-0.2394,-0.239,-0.2098,-0.1984,-0.2061,-0.2203,-0.2201,-0.2199,-0.2197,-0.2196,0,-0.096,-0.1052,-0.106,-0.1081,-0.1181,-0.121,-0.1306,-0.1439,-0.1502,-0.1796,-0.1919,-0.2137,-0.228,-0.2412,-0.2411,-0.2476,-0.2497,-0.2588,-0.2251,-0.2219,-0.2506,-0.2485,-0.2687,-0.2688,-0.2688,-0.2689,-0.2689,0,-0.0945,-0.099,-0.1083,-0.1108,-0.1167,-0.1245,-0.1364,-0.148,-0.1654,-0.1703,-0.2036,-0.2062,-0.2376,-0.2404,-0.2427,-0.2297,-0.25,-0.225,-0.2203,-0.2522,-0.2507,-0.2505,-0.2486,-0.2681,-0.2683,-0.2684,-0.2686,0,-0.0899,-0.0955,-0.1002,-0.1112,-0.1145,-0.1216,-0.1358,-0.1463,-0.1681,-0.1755,-0.1871,-0.2047,-0.2071,-0.2207,-0.2293,-0.2248,-0.2211,-0.2086,-0.2227,-0.2191,-0.1824,-0.1813,-0.1789,-0.1778,-0.1768,-0.176,-0.1754,0,-0.0883,-0.0898,-0.098,-0.0983,-0.1042,-0.1165,-0.1228,-0.1431,-0.144,-0.1605,-0.1558,-0.1713,-0.1784,-0.1652,-0.1789,-0.1793,-0.1787,-0.1768,-0.2005,-0.18,-0.1758,-0.1761,-0.1763,-0.1739,-0.1736,-0.1734,-0.1731,0,-0.0839,-0.0869,-0.0886,-0.0884,-0.0937,-0.098,-0.1051,-0.1064,-0.121,-0.1409,-0.1285,-0.1377,-0.1318,-0.138,-0.1384,-0.1379,-0.1849,-0.1671,-0.1697,-0.1919,-0.1739,-0.1707,-0.1719,-0.1698,-0.1703,-0.1706,-0.1708,0,-0.0791,-0.0783,-0.0779,-0.0781,-0.0783,-0.0748,-0.0857,-0.0827,-0.0886,-0.105,-0.0878,-0.1047,-0.1122,-0.113,-0.1067,-0.1123,-0.1199,-0.1296,-0.1343,-0.1381,-0.1356,-0.1074,-0.0784,0,0,0,0,0,-0.0739,-0.0716,-0.068,-0.0649,-0.0626,-0.0638,-0.0658,-0.0754,-0.0867,-0.0731,-0.0827,-0.0749,-0.0796,-0.0811,-0.0806,-0.0911,-0.1213,-0.0903,-0.1352,-0.1516,-0.1554,-0.1574,0,0,0,0,0,0,-0.0696,-0.0665,-0.0647,-0.0504,-0.0468,-0.0439,-0.0473,-0.0563,-0.0463,-0.0588,-0.0586,-0.0702,-0.0724,-0.079,-0.0788,-0.0808,-0.1079,-0.0965,-0.0963,-0.1494,-0.1529,-0.1559,-0.1593,0,0,0,0,0]},{"header":{"parameterUnit":"m.s-1","parameterCategory":2,"la1":30.2991,"la2":30.254,"lo1":-89.0895,"lo2":-89.0444,"dy":0.0017,"dx":0.0017,"nx":28,"ny":28,"refTime":"2025-07-15T21:00:00:Z","depth":"4","parameterNumber":3,"parameterNumberName":"V-component_of_CURRENTS"},"data":[0,0,0,0,0,0,0,0,0,0,0,0,0,0,0,0,0,0,0,0,0,0,0,0,0,0,0,0,0,0,0,0,0,0,0,0,0,0,0,0,0,0,0,0,0,0,0,0,0,0,0,0,0,0,0,0,0,0,-0.0121,-0.012,0,-0.0129,-0.0129,-0.0129,-0.0102,-0.0101,-0.01,-0.0099,-0.0066,-0.0066,-0.0067,0,0,0,0,0,0,0,0,0,0,0,0,0,-0.0132,-0.0132,-0.0121,-0.012,-0.012,-0.0129,-0.0129,-0.0129,-0.0102,-0.0101,-0.01,-0.0099,-0.0066,-0.0066,-0.0067,0,0,0,0,0,0,0,0,0,0,0,0,0,-0.0135,-0.0132,-0.0121,-0.0106,-0.0105,-0.0129,-0.0129,-0.013,-0.0103,-0.0101,-0.0099,-0.0098,-0.0066,-0.0066,-0.0067,-0.0099,0,0,-0.0067,-0.0067,0,0,0,0,0,0,0,0,-0.0135,-0.0135,-0.0108,-0.0107,-0.0106,-0.0111,-0.0121,-0.0116,-0.0103,-0.0106,-0.0099,-0.0097,-0.0077,-0.0076,-0.0085,-0.0097,-0.0096,-0.0067,-0.0067,-0.0067,-0.0067,0,0,0,0,0,0,0,-0.0134,-0.0134,-0.0126,-0.0108,-0.0107,-0.0116,-0.0115,-0.0121,-0.0101,-0.0106,-0.0103,-0.0101,-0.0076,-0.0085,-0.0084,-0.0095,-0.0067,-0.0067,-0.0067,-0.0067,-0.0114,-0.0116,0,0,0,0,0,0,-0.0128,-0.0134,-0.0126,-0.0126,-0.0114,-0.0117,-0.0116,-0.0113,-0.0102,-0.0098,-0.0102,-0.0099,-0.0086,-0.0084,-0.0083,-0.0105,-0.0067,-0.0067,-0.0067,-0.0113,-0.0115,-0.0116,0,0,0,0,0,0,-0.0128,-0.0127,-0.0126,-0.0128,-0.0129,-0.0118,-0.0115,-0.0114,-0.0117,-0.0099,-0.0095,-0.0106,-0.0084,-0.0082,-0.0089,-0.0103,-0.0067,-0.0068,-0.0112,-0.0114,-0.0115,-0.0158,0,0,0,0,0,0,-0.0128,-0.0127,-0.0129,-0.0128,-0.0128,-0.0138,-0.0117,-0.0115,-0.0117,-0.0114,-0.0102,-0.0098,-0.0083,-0.0089,-0.0089,-0.0103,-0.0068,-0.011,-0.0113,-0.0115,-0.0155,-0.0161,-0.0166,0,0,0,0,0,-0.0129,-0.0136,-0.0129,-0.0128,-0.0128,-0.0139,-0.014,-0.0129,-0.0119,-0.0127,-0.012,-0.0098,-0.0103,-0.0091,-0.009,-0.0104,-0.0109,-0.0112,-0.0115,-0.0153,-0.016,-0.0166,0,0,0,0,0,0,-0.0139,-0.0134,-0.0126,-0.0129,-0.0132,-0.0133,-0.014,-0.0135,-0.0139,-0.0133,-0.0116,-0.0112,-0.013,-0.0113,-0.01,-0.0126,-0.0102,-0.0105,-0.0131,-0.0138,-0.0143,-0.0132,-0.0068,0,0,0,0,0,-0.0143,-0.0149,-0.0143,-0.0148,-0.0149,-0.0148,-0.0152,-0.0145,-0.0145,-0.0144,-0.0142,-0.0138,-0.0145,-0.0136,-0.0145,-0.0155,-0.0107,-0.0163,-0.0169,-0.0174,-0.0166,-0.0058,-0.0051,-0.0125,-0.0124,-0.0124,0,0,-0.0147,-0.0147,-0.0148,-0.0151,-0.0153,-0.0174,-0.0147,-0.0154,-0.0175,-0.0141,-0.0174,-0.0167,-0.0156,-0.0173,-0.0177,-0.0154,-0.0145,-0.0177,-0.0181,-0.017,-0.006,-0.0052,-0.0045,-0.0126,-0.0126,-0.0126,0,0,-0.0165,-0.0159,-0.0172,-0.0184,-0.0188,-0.0191,-0.0194,-0.0201,-0.0204,-0.0229,-0.0215,-0.0214,-0.0226,-0.0218,-0.0214,-0.0256,-0.0188,-0.0256,-0.0258,-0.0155,-0.0146,-0.0138,-0.0133,-0.0124,-0.0243,-0.0243,-0.0243,0,-0.0171,-0.0187,-0.0178,-0.0203,-0.0223,-0.0203,-0.0234,-0.0241,-0.0252,-0.0267,-0.0243,-0.0266,-0.0251,-0.0264,-0.0263,-0.0268,-0.0211,-0.0233,-0.0157,-0.0148,-0.0138,-0.0134,-0.0123,-0.0246,-0.0245,-0.0245,-0.0245,0,-0.0202,-0.0223,-0.0235,-0.0263,-0.0284,-0.0305,-0.0315,-0.0338,-0.0338,-0.0343,-0.0362,-0.0334,-0.0332,-0.0333,-0.0301,-0.025,-0.0238,-0.0185,-0.0131,-0.0133,-0.0131,-0.0119,-0.0249,-0.0248,-0.0247,-0.0247,0,0,-0.0197,-0.0246,-0.0252,-0.0287,-0.032,-0.0344,-0.0388,-0.0423,-0.046,-0.0443,-0.0473,-0.0453,-0.041,-0.04,-0.0359,-0.0262,-0.0167,-0.0175,-0.0169,-0.0158,0.0021,-0.0078,-0.0075,-0.006,-0.0056,-0.0054,-0.0026,0,-0.0225,-0.0284,-0.0305,-0.0378,-0.0414,-0.0438,-0.0491,-0.0523,-0.0535,-0.056,-0.0508,-0.0503,-0.0441,-0.041,-0.0312,-0.0173,-0.0125,-0.0184,0.001,0.0013,-0.006,-0.0059,-0.0043,-0.0016,-0.0014,-0.0011,-0.001,0,-0.0255,-0.0293,-0.0361,-0.0454,-0.0473,-0.052,-0.0608,-0.0643,-0.067,-0.0675,-0.0643,-0.0581,-0.046,-0.0397,-0.017,-0.0187,-0.0098,-0.0008,-0.0003,-0.0062,-0.0061,0.0001,0.0013,0.0011,0.0009,0.0008,0.0006,0,-0.0265,-0.0343,-0.04,-0.043,-0.052,-0.0573,-0.062,-0.0681,-0.0725,-0.071,-0.0708,-0.0587,-0.0488,-0.0311,-0.0148,-0.0097,0.0065,0.0156,0.0099,0.0089,0.0192,0.0185,0.0263,0.0263,0.0263,0.0263,0.0263,0,-0.0298,-0.035,-0.0413,-0.0451,-0.0546,-0.0596,-0.0695,-0.0737,-0.0786,-0.082,-0.0732,-0.0709,-0.0429,-0.0319,-0.017,-0.0026,0.0048,0.0088,0.011,0.0158,0.0147,0.0197,0.0189,0.0264,0.0264,0.0264,0.0263,0,-0.0314,-0.0347,-0.0425,-0.0518,-0.0555,-0.0621,-0.0743,-0.0811,-0.0831,-0.086,-0.0827,-0.0728,-0.0541,-0.0403,-0.0143,-0.006,0.0078,0.0062,-0.0002,0.0016,0.004,0.0029,0.0109,0.0106,0.0104,0.0102,0.01,0,-0.0332,-0.0366,-0.0465,-0.0518,-0.0567,-0.0666,-0.0747,-0.0826,-0.0858,-0.0877,-0.0858,-0.0741,-0.0658,-0.0424,-0.0252,-0.0069,-0.0056,-0.0011,0.0127,0.0021,0.0035,0.0027,0.002,0.0097,0.0096,0.0095,0.0095,0,-0.0368,-0.0392,-0.0451,-0.0535,-0.0624,-0.0724,-0.0802,-0.0834,-0.0886,-0.0915,-0.0861,-0.0768,-0.0636,-0.0422,-0.0359,-0.0213,-0.0004,-0.0033,-0.0023,0.0108,0.0006,0.0021,0.0016,0.0086,0.0088,0.0088,0.0089,0,-0.0388,-0.0428,-0.0478,-0.0558,-0.0652,-0.0719,-0.0787,-0.0812,-0.0856,-0.0852,-0.0842,-0.0749,-0.0672,-0.0509,-0.043,-0.0318,-0.0208,-0.011,-0.0093,-0.0082,-0.0144,-0.0301,-0.0297,0,0,0,0,0,-0.0405,-0.0437,-0.0504,-0.0584,-0.0664,-0.0709,-0.0788,-0.0835,-0.0872,-0.0836,-0.0839,-0.0739,-0.0602,-0.0542,-0.0431,-0.0423,-0.0183,-0.0288,-0.0059,0.0041,0.005,0.0003,0,0,0,0,0,0,-0.0417,-0.0467,-0.049,-0.0558,-0.0613,-0.0702,-0.0749,-0.0792,-0.0744,-0.0773,-0.0692,-0.07,-0.0553,-0.0661,-0.0424,-0.0398,-0.0232,-0.0237,-0.0234,0.0035,0.0044,0.0052,0.0006,0,0,0,0,0]}]]